Terminal Aerodrome Forecast
Issued by NWS

Home | Current Version | Previous Version | Text Only | Print | Product List | Glossary On
Versions: 1 2 3 4 5 6 7 8 9 10 11 12 13
000
FTUS45 KRIW 282329
TAFRKS
TAF
KRKS 282329Z 2900/2924 32018G28KT P6SM SCT100
     FM290200 32014G20KT P6SM SCT100
     FM290500 25007KT P6SM SCT100
     FM291500 27012G18KT P6SM FEW100
     FM291900 28018G30KT P6SM SCT100=

USA.gov is the U.S. government's official web portal to all federal, state and local government web resources and services.